Location: Peterborough
(44.3091°N, 78.3197°W)
Time: 07:18:55
(UTC-04:00)

Vanguard 1 Rocket - Pass Details

Date: 24 March 2023
Orbit: 655 x 4220 km, 34.3° (Epoch: 04 June)

Event Time Altitude Azimuth Distance (km) Brightness Sun altitude
Rises 00:59:06 0° 242° (WSW) 8,235 12.1 -44.1°
Reaches altitude 10° 01:05:29 10° 239° (WSW) 6,891 11.6 -44.3°
Enters shadow 01:08:27 15° 236° (WSW) 6,235 11.3 -44.3°
Maximum altitude 01:24:58 51° 172° (S) 2,977 - -44.4°
Drops below altitude 10° 01:35:28 10° 100° (E) 3,901 - -44.2°
Exits shadow 01:36:59 - 96° (E) 4,282 10.8 -44.2°
Sets 01:38:00 0° 95° (E) 4,554 11.0 -44.2°
